User: anonymous   Login
Location: Unspecified
(0.0000°N, 0.0000°E)
Time: 20:59:29
(UTC+01:00)
Language:

Delta 168 - Orbit

View from above orbital plane
View from above orbital plane
View from above satellite
View from above satellite

Ground track
Ground track

The orbit data is extracted from the following two-line orbital elements,

1 14051U 83041B   17020.36319488  .00001599  00000-0  13055-3 0  9990
2 14051  25.3421   3.3248 1099297 266.9917  80.4485 13.07930013559057
Epoch (UTC): 20 January 2017 08:43:00
Eccentricity: 0.1099297
inclination: 25.3421°
perigee height: 394 km
apogee height: 2067 km
right ascension of ascending node: 3.3248°
argument of perigee: 266.9917°
revolutions per day: 13.07930013
mean anomaly at epoch: 80.4485°
orbit number at epoch: 55905

The dashed part of the orbit path shows where the satellite is in the earth's shadow,  

DLR